Regional Weather Roundup
Issued by NWS

Home | Current Version | Previous Version | Text Only | Print | Product List | Glossary On
Versions: 1 2 3 4 5 6 7 8 9 10 11 12 13 14 15 16 17 18 19 20 21 22 23 24 25 26 27 28 29 30 31 32 33 34 35 36 37 38 39 40 41 42 43 44 45 46 47 48 49 50
000
ASUS45 KREV 230510
RWRNV
NEVADA REGIONAL WEATHER ROUNDUP
NATIONAL WEATHER SERVICE RENO NV
1000 PM PDT FRI AUG 22 2014

NOTE: "FAIR" INDICATES FEW OR NO CLOUDS BELOW 12,000 FEET WITH NO
SIGNIFICANT WEATHER AND/OR OBSTRUCTIONS TO VISIBILITY.

NVZ001-003-004-230600-
WESTERN NEVADA

CITY           SKY/WX    TMP DP  RH WIND       PRES   REMARKS
RENO           CLEAR     69  38  32 W8        30.04R
CARSON CITY    FAIR      68  39  34 NW7       30.06R
MINDEN         FAIR      66  39  37 N12       30.07
SLIDE MTN        N/A     45  32  61 W25         N/A
FALLON         PTCLDY    74  37  26 W16       29.96R
LOVELOCK       CLOUDY    76  20  12 N15       29.95R
HAWTHORNE      CLEAR     77  32  19 NW7       29.97R
$$

NVZ002-CAZ072-073-230600-
NORTHERN AND CENTRAL SIERRA

CITY           SKY/WX    TMP DP  RH WIND       PRES   REMARKS
S. LAKE TAHOE  CLEAR     60  39  45 SW3       30.16R
TRUCKEE        CLEAR     50  36  57 SE6       30.16R
SQUAW VLY 8000   N/A     50  37  62 VRB14       N/A
SUSANVILLE     CLEAR     66  41  39 NW5       30.03
BLUE CANYON    CLEAR     59  39  47 E5        30.13R
MAMMOTH LAKES  FAIR      59  36  41 W13       30.18S
BRIDGEPORT     FAIR      58  31  35 W9        30.15S
$$

NVZ030-031-036-230600-
NORTHERN NEVADA

CITY           SKY/WX    TMP DP  RH WIND       PRES   REMARKS
ELKO           MOCLDY    59  35  40 W5        30.02R
WINNEMUCCA     PTCLDY    60  38  43 N5        30.00R
WENDOVER       MOCLDY    63  52  67 N16       29.97F
$$

NVZ035-037-230600-
CENTRAL NEVADA

CITY           SKY/WX    TMP DP  RH WIND       PRES   REMARKS
ELY            MOCLDY    57  50  77 SW10      30.05R
EUREKA           N/A     59  39  47 N6        30.03R
$$

NVZ013-014-230600-
SOUTH CENTRAL NEVADA

CITY           SKY/WX    TMP DP  RH WIND       PRES   REMARKS
TONOPAH        PTCLDY    75  26  16 N21G29    30.01R
$$

NVZ017-020-022-230600-
SOUTHERN NEVADA

CITY           SKY/WX    TMP DP  RH WIND       PRES   REMARKS
LAS VEGAS      CLEAR     86  49  27 S17G25    29.80R
N. LAS VEGAS   CLEAR     86  49  27 S17G24    29.81R
NELLIS AFB     CLEAR     86  52  30 S22       29.80R
HENDERSON      CLEAR     83  51  32 S14       29.87S
MERCURY        CLEAR     82  47  29 SW17G25   29.86R
$$



USA.gov is the U.S. government's official web portal to all federal, state and local government web resources and services.